COSMOS 614

Satellite information

Favourite Embed

Satellite Type and Status

PAYLOADIN ORBIT

Key statistics

Satellite COSMOS 614 at a glance.

Uptime

18781

Days in orbit

Revolutions

≈ 14.4

Per day

Orbit

LEO

Low Earth Orbit

Inclination

74.1

Latest

Satellite identification and parameters

Extended collection of information and parameters for COSMOS 614.

Object identification

Identified? True

Debris? False

Object name: COSMOS 614

International designator: 1973-098A

Object number (NORAD): 6965

Object ID (CCSDS): 6965

Country: COMMONWEALTH OF INDEPENDENT STATES (CIS)

Current information (Y/N): Y

RCS size: LARGE

Orbital parameters

Period: 100.003 minutes

Inclination: 74.0569 deg

SMA: 7136.773 km

Apoapsis: 774.08 km

Periapsis: 743.197 km

RAAN: 67.0957 deg

Eccentricy: 0.0021636

Argument of periapsis: 98.435 deg

Mean anomaly: 261.9259 deg

Mean motion: 14.39958238 rev/day

Mean motion (dot): 0.00000323 rev/day2

B* drag term: 0.00011057 1/REarth

Two-line elements (TLE)

Creation date: May 6, 2025, 3:54 a.m.

Reference frame: TEME

Reference center: EARTH

Epoch: May 5, 2025, 8:11 p.m. UTC

TLE line 0: 0 COSMOS 614

TLE line 1: 1 06965U 73098A 25125.84119393 .00000323 00000-0 11057-3 0 9991

TLE line 2: 2 06965 74.0569 67.0957 0021636 98.4350 261.9259 14.39958238695668

Live tracking on map

Real-time ground track for satellite COSMOS 614.

In-orbit conjunctions

A list of the most updated potential collisions computed for object COSMOS 614.

Target Orbit TCA Probability of collision Miss distance Type
FENGYUN 1C DEB SSO 2025-02-25 12:00:52 0.0002059715 265.0 (m) DEBRIS
CZ-6A DEB LEO 2025-02-10 18:11:18 0.0004007278 391.0 (m) DEBRIS
NOAA 16 DEB SSO 2025-01-11 03:35:31 0.0006139725 286.0 (m) DEBRIS
NOAA 16 DEB SSO 2024-11-14 14:54:51 0.0001568497 134.0 (m) DEBRIS
FENGYUN 1C DEB * SSO 2024-09-17 00:44:41 0.0001906333 845.0 (m) DEBRIS

Associated space launch

Military communications satellite

COSMOS 614 was lifted into orbit during the mission ‘Kosmos-3M | Strela-2M 8’, on board a Kosmos-3M space rocket.

The launch took place on Dec. 4, 1973, 3 p.m. from 132/2.

For more information about the launch, click the button.

Launch to space Kosmos-3M | Strela-2M 8
Kosmos-3M | Strela-2M 8

Agency: N/A

Status: Launch Successful

Launch date: Dec. 4, 1973, 3 p.m. UTC

Rocket: Kosmos-3M

Launch pad: 132/2

Location: Plesetsk Cosmodrome, Russian Federation

...

Latest news about this satellite

There are no fresh news available about this satellite. Check back as we update our databases every day.


Newsletter sign-up

Weekly statistics, charts and insights to help you stay on top of the space industry.